Location: Unspecified
(35.6961°N, 0.0000°E)
Time: 12:21:34
(UTC+00:00)

S-56A Canister/Altair - Pass Details

Date: 02 June 2019
Orbit: 633 x 2499 km, 38.9° (Epoch: 25 June)

Event Time Altitude Azimuth Distance (km) Brightness Sun altitude
Exits shadow 03:01:52 - 287° (WNW) 3,461 10.6 -17.6°
Rises 03:01:54 0° 287° (WNW) 3,453 10.6 -17.6°
Reaches altitude 10° 03:04:03 10° 286° (WNW) 2,679 10.0 -17.3°
Maximum altitude 03:10:30 73° 202° (SSW) 1,295 8.4 -16.4°
Drops below altitude 10° 03:20:29 10° 120° (ESE) 4,035 11.4 -14.9°
Sets 03:24:26 0° 119° (ESE) 5,315 12.1 -14.3°
